sat.trackr.live / text

‹ back to catalog

STARLINK-30148

NORAD 57617 · 2023-119R

PAYLOAD ACTIVE UNKNOWN

§ Identity

Operator
Country
US
Launch date
2023-08-11
Launch site
AFETR
Launch vehicle
Mass (kg)
RCS (m²)

Purposes: comms

External: N2YO · Heavens-Above · Gunter

§ Orbital elements

Epoch: 2026-09-19T18:43:48.647424Z

Period
94.27 min
Inclination
43.0037°
Eccentricity
0.0001839
Mean motion
15.27575950 rev/d
Perigee alt
481.8 km
Apogee alt
484.3 km
Semi-major
6,861.2 km
B*
1.6530e-5
RAAN
65.1566°
Arg perigee
267.5455°
Mean anomaly
92.5186°
Rev number
17,277

§ Raw data

STARLINK-301481 57617U 23119R   26262.78042416  .00000192  00000+0  16530-4 0  99922 57617  43.0037  65.1566 0001839 267.5455  92.5186 15.27575950172770

JSON: /api/v1/satellites/57617 · /tle

For live sub-satellite position, see the globe view (requires WebGL).

§ Visibility from observer

Set your observer location to see the next 7 days of passes ≥ 10°. The values pass through the URL so the page stays shareable.

No JS? Fill the form by hand. The geolocation button needs JavaScript.